Temperature
15 15 15 14 14 14 14 14 14 13 13 13 13 13 13 13 13 12 12 12 13 12 12 12 12 12 12 12 12 12 12 12 12 13 13 13 13 13 13 13 12 12 12
15 14 14 14 14 14 14 13 13 13 13 13 13 13 13 13 13 12 12 12 12 12 12 12 12 12 12 12 12 12 12 12 12 12 12 12 12 12 12 12 12 12 12
15 14 14 14 14 14 13 13 13 13 13 13 13 13 13 12 12 12 12 12 12 12 12 12 12 12 12 12 12 12 12 12 12 12 11 12 12 12 12 12 12 12 12
14 14 14 14 13 13 13 13 13 13 13 13 13 12 12 12 12 12 12 12 12 12 12 12 12 12 12 12 12 12 12 11 11 11 11 11 11 11 11 11 11 11 11
14 14 14 13 13 13 13 13 13 13 13 12 12 12 12 12 12 12 12 12 12 12 12 12 12 12 12 12 11 11 11 11 11 11 11 11 11 11 11 11 11 11 11
14 14 14 13 13 13 13 13 13 12 12 12 12 12 12 12 12 12 12 12 12 12 12 12 12 12 11 11 11 11 11 11 11 10 10 10 10 10 10 10 10 10 10
14 14 13 13 13 13 13 13 12 12 12 12 12 12 12 12 12 12 12 12 12 12 12 11 11 11 11 11 11 11 11 10 10 10 10 10 10 10 10 10 10 10 10
14 13 13 13 13 13 12 12 12 12 12 12 12 12 12 12 12 12 12 12 11 11 11 11 11 11 11 11 11 10 10 10 10 10 10 10 10 10 10 10 9 9 10
13 13 13 13 13 13 12 12 12 12 12 12 11 11 11 11 12 12 11 11 11 11 11 11 11 11 11 11 11 10 10 10 10 10 10 10 10 10 9 9 9 9 9
13 13 13 13 13 12 12 12 12 12 12 12 11 12 12 12 11 11 11 11 11 11 11 11 11 11 10 10 10 10 10 10 10 10 10 10 9 9 9 9 9 9 9
13 13 13 13 13 12 12 12 12 12 12 12 12 12 12 12 11 11 11 11 11 11 10 10 10 10 10 10 10 10 10 9 9 9 9 9 9 9 9 9 9 9 9
13 13 13 13 13 12 12 12 12 12 12 12 12 12 12 11 11 11 11 11 10 10 10 10 10 10 10 10 10 10 9 9 9 9 9 9 9 9 9 9 9 9 9
13 13 12 12 12 12 12 12 12 12 12 12 12 12 11 11 11 11 11 10 10 10 10 10 10 10 10 10 9 9 9 9 9 9 8 8 9 9 9 9 9 9 9
12 12 12 12 12 12 12 12 12 12 12 12 12 11 11 11 11 10 10 10 10 10 10 10 9 9 9 9 9 9 9 9 9 8 8 8 8 8 8 9 9 8 8
12 12 12 12 12 12 12 12 12 12 12 12 11 11 11 11 10 10 10 10 10 10 9 9 9 9 9 9 9 9 9 9 8 8 8 8 8 8 8 8 8 8 8
12 12 12 12 12 12 12 12 12 12 12 12 12 11 11 11 11 11 10 10 10 10 10 9 9 9 9 9 9 9 9 8 8 8 8 8 8 8 8 8 8 8 8
12 12 12 13 13 13 12 12 12 12 12 12 12 11 11 11 11 10 10 10 10 10 10 9 9 9 9 9 9 9 9 8 8 8 8 8 8 8 8 8 8 8 8
12 12 12 13 13 13 13 13 12 12 12 12 12 11 11 11 11 10 10 10 10 10 10 9 9 9 9 9 9 8 8 8 8 8 8 8 8 8 8 8 8 8 8
12 12 12 12 13 13 13 13 13 12 12 12 12 11 11 11 11 10 10 10 10 10 10 9 9 9 9 9 8 8 8 8 8 8 8 8 8 8 8 8 8 8 7
12 12 12 12 13 13 13 13 12 12 12 12 11 11 11 11 11 10 10 10 10 10 9 9 9 9 9 8 8 8 8 8 8 8 8 8 8 8 7 7 7 7 7
12 12 12 12 12 12 12 12 12 12 12 12 12 11 11 11 11 11 10 10 10 9 9 9 9 9 8 8 8 8 8 8 8 8 7 8 8 7 7 7 7 7 7
12 12 12 12 12 12 12 12 12 12 12 12 12 11 11 11 11 10 10 10 10 9 9 9 8 8 8 8 8 8 8 7 7 7 7 7 7 7 7 7 7 7 6
12 12 12 12 12 12 12 12 12 12 12 12 11 11 11 11 10 10 10 10 9 9 9 9 8 8 8 8 8 7 7 7 7 7 7 7 7 7 7 7 7 7 6
12 12 12 12 11 11 11 11 11 11 11 11 11 11 11 10 10 10 10 9 9 9 8 8 8 8 8 7 7 7 7 7 7 7 7 7 7 7 7 7 7 6 6
12 12 11 11 11 11 11 11 11 11 11 11 11 11 10 10 10 10 9 9 9 8 8 8 8 7 7 7 7 7 7 7 7 7 7 7 7 7 7 6 6 6 6
11 11 11 11 11 11 11 11 11 11 10 10 10 10 10 10 10 9 9 9 8 8 8 7 7 7 7 7 7 7 7 7 7 7 7 7 7 6 6 6 6 6 6
Wind_Speed
2 2 2 1 1 1 0 1 1 1 1 1 0 1 1 1 0 1 2 2 1 2 2 2 2 3 2 3 3 2 2 2 3 4 3 2 2 2 2 3 4 5 7
3 3 2 2 1 1 1 1 1 1 1 1 1 1 1 1 0 1 2 2 2 2 2 2 3 3 3 3 2 3 3 2 2 4 4 3 2 2 2 2 3 5 5
3 3 2 2 1 1 1 1 1 1 1 1 1 1 1 1 1 0 1 2 2 2 2 3 3 3 3 2 2 3 3 3 2 3 4 3 3 3 2 3 4 3 4
3 3 2 2 1 1 1 1 0 0 0 1 1 2 2 1 1 1 1 2 2 2 2 2 2 2 1 2 3 3 3 3 3 3 3 3 3 3 2 2 3 3 3
2 2 2 2 2 1 1 1 1 1 1 1 1 1 2 2 2 2 2 2 2 2 2 1 2 1 0 1 1 2 2 2 3 3 3 3 3 2 2 3 3 3 3
1 2 2 2 1 1 1 1 1 1 2 2 2 2 2 2 1 2 1 2 2 2 3 2 2 2 0 2 1 2 2 3 3 3 3 3 4 3 3 3 3 3 3
0 1 1 1 1 1 1 1 1 1 1 2 2 2 2 2 1 0 1 1 2 2 3 3 4 3 1 1 2 2 2 4 5 4 4 4 4 3 3 4 3 3 3
0 0 1 1 1 1 1 1 1 1 1 1 2 2 1 2 1 1 2 2 2 3 3 3 2 1 3 2 1 1 2 3 4 4 4 4 4 3 3 4 4 4 4
0 1 1 0 0 1 1 1 1 1 1 2 2 2 2 2 2 2 2 2 2 3 3 3 2 1 2 1 1 2 3 4 5 4 5 6 6 7 5 2 3 3 4
1 1 1 1 1 1 1 2 2 2 2 2 2 1 1 1 2 2 2 2 2 3 2 2 1 0 1 1 1 2 4 4 4 4 5 6 6 7 7 5 4 4 4
2 2 1 1 1 1 1 1 2 2 2 2 2 2 2 2 2 2 2 2 3 4 3 2 2 1 1 3 3 3 6 5 5 4 4 3 3 4 4 4 5 4 4
2 2 2 1 3 2 1 2 2 3 3 3 3 2 1 1 1 1 2 2 4 4 3 2 1 2 4 5 5 6 7 5 4 4 3 3 3 3 3 4 5 5 5
2 2 2 2 2 1 1 2 2 2 3 3 2 2 1 0 1 1 1 3 4 3 3 3 3 5 5 4 7 7 5 3 3 3 4 3 3 3 3 3 3 4 4
1 2 2 2 2 1 1 2 2 2 2 3 3 2 2 1 2 2 1 1 3 3 3 4 5 6 6 5 4 4 3 3 3 3 3 3 3 3 3 2 2 2 2
1 2 3 3 1 0 0 1 1 1 1 1 2 2 2 2 2 2 2 2 3 3 3 3 3 3 3 3 3 2 2 1 2 3 3 3 3 3 2 2 2 2 3
2 2 3 3 2 2 1 0 2 1 2 2 2 2 2 1 2 3 4 4 5 4 3 4 4 3 3 3 2 2 1 1 1 2 3 3 3 3 3 3 2 2 3
2 3 4 4 2 2 2 2 2 2 3 3 3 4 4 4 4 4 5 5 6 3 2 4 3 2 3 3 2 2 2 1 2 2 3 3 2 3 3 3 3 3 3
3 3 4 3 3 3 2 2 2 2 2 2 2 5 6 6 5 5 4 3 3 2 3 3 2 2 2 3 3 3 3 2 2 3 3 3 3 3 3 3 3 3 3
3 3 3 4 4 3 3 3 3 2 2 2 1 1 4 4 4 4 2 2 4 3 3 3 2 2 2 2 3 3 3 2 2 2 2 3 3 3 4 3 3 4 4
3 4 4 4 4 3 3 3 4 3 2 1 1 1 1 1 2 2 2 3 4 3 3 3 3 2 2 2 2 3 3 3 2 2 2 2 3 3 3 4 4 4 3
3 3 4 4 4 4 4 4 3 3 2 2 1 0 1 2 2 2 2 2 3 3 2 3 3 3 2 2 2 3 4 4 3 3 3 3 3 3 3 3 3 3 3
3 3 3 3 4 4 4 4 4 4 4 3 1 1 1 1 2 2 2 1 1 2 2 2 3 3 3 3 3 2 3 4 4 4 5 4 3 2 2 2 3 3 3
4 4 3 2 3 3 3 4 4 4 4 3 3 2 1 2 2 2 2 2 1 2 2 2 2 3 3 3 4 4 3 4 4 5 5 5 4 3 3 3 3 4 3
4 4 3 2 3 3 3 4 4 5 4 3 2 2 2 2 2 2 2 2 2 2 2 2 2 4 5 4 3 4 5 5 5 5 6 6 5 4 3 3 3 3 3
4 3 3 3 3 4 4 4 4 4 4 3 3 2 2 2 2 2 2 2 2 2 3 3 3 4 5 6 6 6 6 6 6 7 6 5 5 4 4 4 4 3 3
4 3 3 3 3 3 3 4 4 4 4 4 3 3 3 3 3 3 2 2 2 2 3 4 5 5 6 6 6 6 6 7 7 8 6 5 4 4 4 3 4 3 3
Wind_Direction
99 82 75 73 39 50 37 356 18 19 14 346 332 321 276 239 225 245 274 274 244 273 282 277 271 274 280 291 288 285 274 272 281 295 294 300 287 269 250 231 226 217 218
90 74 70 78 50 25 28 29 36 54 32 330 315 296 286 286 259 260 283 308 296 280 279 277 274 275 272 277 283 286 282 269 260 287 302 307 290 275 250 248 259 252 235
87 80 64 75 73 52 37 38 39 51 21 18 359 295 298 325 339 328 307 309 314 306 290 274 275 280 280 287 288 286 288 290 277 274 282 278 271 264 261 267 264 260 263
93 88 76 82 85 74 91 101 95 72 55 5 330 310 305 322 349 349 343 326 314 317 318 314 313 296 291 307 298 302 302 304 292 282 284 287 283 274 258 257 266 251 253
107 105 103 104 103 85 64 50 58 18 328 316 318 316 303 294 315 343 347 329 335 323 323 330 334 337 289 258 295 316 318 307 297 288 291 296 297 309 292 279 270 262 255
103 108 100 101 103 95 92 72 74 30 341 341 347 335 324 308 30 39 9 341 320 314 310 306 299 269 206 170 216 254 270 269 281 284 286 290 300 304 305 291 277 271 268
45 117 125 113 82 56 7 56 43 14 348 347 326 312 325 345 25 50 326 301 295 298 295 294 296 301 282 239 226 241 272 266 241 243 266 276 283 290 294 299 295 286 273
267 53 129 134 116 59 15 4 351 324 318 301 305 320 316 322 314 259 267 260 275 286 282 274 272 309 314 330 305 289 277 273 247 235 244 259 270 275 271 264 265 269 269
287 352 329 297 74 57 352 317 286 279 285 283 286 287 295 312 298 297 273 280 274 283 294 312 293 272 304 330 306 288 289 288 275 261 243 253 261 260 252 264 267 265 274
346 323 338 359 3 317 285 292 292 277 268 271 283 290 287 276 257 260 265 294 299 298 293 311 338 343 15 29 310 291 284 286 293 285 271 261 255 253 241 225 242 258 265
346 343 344 338 284 263 259 291 278 272 275 276 270 261 252 238 216 221 215 290 310 313 313 328 351 40 326 290 277 269 264 278 289 278 272 267 261 255 243 224 222 237 253
354 351 338 306 290 297 301 291 283 277 266 265 265 263 253 186 148 212 213 259 311 318 317 333 355 321 301 290 281 271 272 283 279 279 275 273 270 266 259 249 233 225 229
353 345 331 300 288 292 272 282 277 277 288 292 286 298 317 17 61 101 230 282 300 302 305 297 291 283 285 284 275 274 274 271 274 282 289 289 286 277 269 254 244 236 235
332 328 302 280 269 307 310 304 310 338 329 333 332 335 346 2 26 26 345 314 302 297 297 291 275 264 267 274 280 273 254 245 255 269 281 289 292 291 287 273 265 253 254
274 277 282 272 245 220 279 335 338 357 304 300 331 339 336 333 322 319 312 316 324 338 320 286 276 269 270 262 263 253 231 238 272 283 286 294 300 302 298 297 283 268 252
282 283 281 278 241 237 224 263 24 278 233 220 238 260 300 301 280 304 308 304 306 314 312 293 291 291 294 303 308 303 294 285 281 285 285 287 293 297 295 296 294 289 273
291 291 291 293 274 257 238 230 250 271 262 258 249 253 247 261 281 293 303 314 306 300 283 286 293 311 312 312 311 310 316 305 296 292 286 284 288 291 285 283 283 285 284
291 284 291 296 299 294 279 256 251 259 272 264 242 234 232 235 249 264 285 327 309 288 277 293 314 326 326 324 325 320 315 321 313 307 306 308 311 310 307 306 301 296 293
286 291 294 303 302 298 300 297 297 295 284 283 306 266 238 236 252 264 258 274 286 296 301 314 328 337 338 334 331 328 327 317 313 311 318 326 318 312 310 311 311 311 306
277 294 293 299 305 311 307 308 308 303 296 300 284 320 328 314 304 286 253 265 280 294 310 322 328 326 331 335 329 324 313 304 311 311 309 306 301 300 301 306 309 307 302
269 285 288 297 313 325 325 316 309 306 305 291 294 143 203 265 281 275 260 275 295 312 324 325 320 325 331 323 315 321 325 326 332 327 318 304 299 302 303 304 300 297 298
288 291 290 296 310 323 327 324 320 322 327 329 350 21 219 297 319 323 322 301 309 307 332 333 331 342 345 334 331 329 333 335 337 332 320 308 304 300 297 295 295 292 291
290 292 287 294 310 324 319 322 327 327 325 326 333 355 332 322 339 343 335 336 355 352 5 360 343 340 346 354 353 352 353 343 330 326 322 317 317 314 304 301 299 301 295
284 292 297 302 309 316 318 319 321 324 325 325 334 336 326 322 322 329 334 341 359 360 357 0 0 357 0 3 357 3 5 352 340 330 323 316 317 322 322 317 309 312 309
281 288 295 305 314 319 320 320 321 322 329 333 335 337 339 337 330 326 338 353 1 6 5 10 15 10 10 16 17 13 11 9 1 343 328 320 318 315 308 306 309 314 308
282 281 284 303 318 323 324 324 326 330 335 336 337 345 351 341 332 331 346 10 18 19 17 18 18 23 16 18 17 15 13 4 352 339 324 314 315 316 315 307 312 311 303
Height
1488 1487 1487 1487 1487 1487 1487 1487 1487 1487 1487 1487 1487 1487 1486 1486 1486 1486 1486 1486 1486 1486 1486 1486 1486 1486 1486 1486 1486 1486 1486 1486 1485 1484 1485 1484 1484 1484 1484 1484 1483 1483 1484
1487 1487 1486 1486 1486 1486 1486 1486 1486 1486 1486 1486 1486 1485 1485 1485 1485 1485 1485 1485 1484 1484 1484 1484 1484 1484 1484 1484 1484 1484 1483 1483 1483 1482 1481 1481 1481 1481 1480 1480 1480 1481 1481
1488 1487 1486 1486 1485 1485 1485 1485 1486 1486 1486 1485 1485 1485 1484 1484 1484 1484 1484 1484 1483 1483 1483 1483 1482 1482 1482 1482 1481 1481 1481 1481 1480 1479 1478 1478 1478 1478 1477 1477 1477 1477 1477
1488 1487 1486 1486 1485 1485 1485 1485 1485 1485 1485 1485 1484 1484 1484 1484 1483 1483 1483 1482 1482 1482 1481 1481 1480 1480 1480 1479 1479 1479 1478 1478 1477 1477 1476 1475 1475 1475 1475 1474 1474 1474 1474
1487 1487 1486 1486 1485 1485 1484 1484 1484 1484 1485 1484 1483 1483 1483 1483 1482 1482 1482 1481 1481 1480 1480 1479 1478 1478 1478 1477 1477 1476 1476 1475 1475 1474 1473 1473 1472 1471 1471 1471 1470 1470 1470
1487 1487 1486 1486 1485 1485 1484 1484 1484 1483 1483 1483 1482 1482 1482 1482 1481 1481 1480 1480 1479 1478 1478 1477 1476 1476 1475 1475 1474 1474 1473 1473 1472 1471 1471 1470 1469 1469 1468 1468 1467 1466 1466
1487 1487 1486 1486 1485 1485 1484 1484 1483 1483 1483 1482 1481 1481 1480 1480 1480 1479 1479 1478 1477 1476 1476 1475 1474 1474 1473 1472 1471 1471 1470 1470 1469 1469 1468 1467 1466 1465 1465 1464 1464 1462 1462
1486 1486 1486 1486 1485 1484 1484 1483 1483 1482 1482 1481 1481 1480 1479 1479 1478 1478 1477 1476 1475 1474 1474 1473 1472 1471 1471 1470 1469 1468 1467 1466 1466 1465 1465 1464 1463 1462 1462 1461 1460 1459 1459
1485 1485 1485 1485 1484 1484 1483 1483 1482 1482 1481 1480 1480 1479 1478 1477 1476 1476 1475 1474 1473 1472 1471 1471 1470 1469 1468 1467 1466 1465 1464 1463 1463 1462 1462 1461 1460 1459 1459 1458 1457 1456 1455
1484 1484 1484 1484 1483 1482 1482 1482 1481 1481 1480 1479 1479 1478 1476 1476 1475 1474 1473 1472 1471 1470 1469 1468 1468 1467 1465 1464 1463 1462 1460 1460 1459 1459 1458 1457 1457 1456 1455 1455 1453 1453 1452
1484 1483 1483 1482 1482 1482 1481 1481 1480 1479 1478 1478 1477 1476 1475 1474 1473 1472 1471 1470 1469 1468 1467 1466 1465 1464 1463 1462 1461 1459 1458 1458 1457 1456 1455 1454 1453 1453 1452 1451 1451 1450 1449
1482 1482 1482 1481 1481 1481 1480 1479 1478 1478 1477 1476 1475 1475 1474 1473 1472 1471 1470 1469 1468 1467 1465 1464 1463 1461 1460 1459 1458 1457 1456 1455 1454 1453 1452 1451 1450 1449 1449 1448 1448 1447 1446
1481 1480 1480 1480 1480 1479 1478 1478 1477 1476 1476 1475 1474 1474 1473 1472 1471 1469 1468 1467 1466 1465 1463 1462 1461 1459 1458 1456 1455 1454 1453 1452 1452 1450 1449 1449 1448 1447 1446 1445 1445 1444 1444
1479 1479 1479 1478 1478 1478 1477 1476 1476 1475 1474 1474 1473 1472 1471 1470 1469 1467 1466 1465 1463 1462 1461 1459 1458 1457 1456 1454 1453 1452 1451 1450 1449 1448 1447 1447 1446 1445 1444 1443 1442 1441 1441
1478 1477 1477 1477 1477 1476 1476 1475 1474 1474 1473 1472 1471 1471 1469 1468 1467 1466 1464 1462 1461 1460 1458 1457 1456 1455 1453 1452 1451 1450 1450 1448 1448 1446 1446 1445 1444 1443 1442 1441 1440 1439 1438
1477 1477 1476 1476 1476 1475 1474 1474 1473 1472 1471 1471 1470 1469 1468 1467 1465 1464 1462 1461 1459 1458 1457 1455 1454 1454 1453 1451 1450 1449 1448 1447 1445 1445 1444 1443 1442 1441 1440 1438 1437 1437 1436
1475 1475 1475 1475 1474 1474 1473 1472 1471 1470 1470 1469 1468 1467 1466 1465 1463 1462 1461 1459 1458 1457 1455 1454 1453 1452 1451 1450 1449 1448 1446 1445 1444 1443 1442 1441 1440 1439 1438 1436 1435 1434 1433
1474 1474 1474 1473 1473 1472 1472 1471 1470 1469 1468 1467 1466 1465 1464 1463 1462 1460 1459 1458 1456 1455 1454 1453 1452 1451 1450 1449 1448 1447 1445 1444 1443 1441 1440 1439 1438 1437 1436 1434 1433 1432 1430
1473 1473 1472 1472 1471 1471 1470 1469 1468 1467 1466 1465 1464 1463 1462 1461 1460 1459 1457 1456 1455 1454 1453 1452 1451 1450 1449 1447 1446 1445 1444 1442 1441 1439 1438 1437 1436 1435 1433 1432 1431 1429 1428
1471 1471 1470 1470 1469 1469 1468 1467 1467 1466 1465 1464 1462 1461 1460 1459 1458 1457 1455 1454 1454 1453 1452 1451 1450 1448 1447 1446 1444 1443 1442 1440 1439 1438 1436 1435 1434 1433 1431 1430 1428 1427 1425
1470 1470 1469 1469 1468 1467 1466 1466 1465 1464 1463 1462 1461 1459 1458 1457 1456 1455 1454 1453 1452 1451 1450 1449 1448 1447 1445 1444 1443 1441 1440 1439 1437 1436 1435 1433 1432 1431 1429 1428 1426 1424 1423
1469 1468 1468 1467 1467 1466 1465 1464 1463 1462 1461 1460 1459 1458 1457 1456 1455 1454 1453 1452 1451 1450 1449 1448 1447 1445 1444 1442 1441 1439 1438 1436 1435 1434 1432 1431 1430 1429 1427 1425 1423 1422 1420
1468 1467 1466 1466 1465 1464 1463 1462 1462 1461 1460 1459 1458 1456 1455 1455 1454 1453 1452 1451 1450 1449 1447 1446 1445 1443 1442 1440 1439 1438 1436 1434 1433 1432 1430 1429 1428 1427 1425 1424 1422 1420 1418
1466 1465 1465 1464 1463 1463 1462 1461 1460 1459 1458 1457 1456 1455 1454 1453 1452 1451 1450 1449 1448 1447 1446 1444 1443 1441 1440 1438 1437 1436 1434 1433 1431 1430 1429 1427 1426 1424 1423 1422 1420 1418 1416
1464 1464 1464 1463 1462 1461 1460 1459 1458 1458 1457 1455 1455 1454 1453 1452 1450 1449 1449 1448 1446 1445 1444 1442 1441 1439 1437 1436 1435 1433 1432 1431 1429 1428 1427 1425 1424 1422 1421 1419 1418 1416 1415
1463 1462 1462 1461 1460 1460 1459 1458 1457 1456 1455 1454 1453 1452 1451 1450 1449 1448 1447 1446 1444 1443 1442 1440 1439 1437 1435 1434 1432 1431 1429 1428 1427 1425 1424 1423 1421 1420 1419 1418 1416 1415 1413